GFSNIL_sfc_thetae_000.txt.gz
Theta_e
320 318 316 318 318 317 316 317 318 320 321 322 323 324 322 323 324 323 321 322 322 322
321 320 319 318 318 318 318 320 320 320 320 322 323 322 324 324 324 325 325 325 324 324
325 322 321 319 318 318 318 319 320 321 321 322 322 322 324 323 322 325 326 327 327 326
324 323 322 321 318 319 319 320 321 321 322 322 322 322 322 322 323 325 326 327 326 324
324 322 322 320 320 320 320 321 321 323 323 323 322 323 324 323 324 324 324 325 326 325
321 321 322 320 321 321 321 321 324 324 324 324 324 323 323 323 322 323 324 325 326 326
320 320 321 321 321 321 322 321 323 324 326 326 325 325 325 323 321 320 323 325 326 327
319 320 322 322 320 321 321 322 323 324 325 325 325 327 325 324 325 323 321 322 325 325
319 324 322 322 319 322 321 321 321 322 323 322 325 309 313 322 325 325 324 322 325 324
315 322 319 320 318 319 316 315 316 316 316 315 318 307 310 315 325 325 324 323 324 327
315 322 317 316 317 317 314 314 312 312 311 312 314 305 307 311 326 325 323 323 322 324
314 320 318 315 316 315 314 312 312 311 309 309 307 303 304 317 322 322 319 319 318 318
313 318 319 315 316 316 314 313 313 311 309 307 303 301 305 314 319 315 313 312 314 307
313 316 320 318 318 318 317 315 311 310 308 308 304 299 301 305 314 313 309 311 311 306

GFSNIL_sfc_thetae_003.txt.gz
Theta_e
318 315 314 315 315 314 314 314 315 318 319 320 321 321 320 320 320 319 319 320 321 321
318 315 316 315 315 314 315 317 317 318 319 321 321 321 322 322 322 322 321 321 321 325
321 318 316 316 316 315 315 316 317 318 319 320 320 322 322 321 326 326 324 322 324 326
320 320 318 317 316 316 315 317 317 319 320 320 320 321 320 322 325 325 326 326 324 325
321 320 318 317 316 316 316 317 319 320 321 321 320 320 322 321 322 325 325 325 325 324
319 319 317 316 317 317 317 318 320 321 321 321 321 321 320 321 320 321 325 325 326 325
317 318 318 318 318 318 319 319 319 320 323 322 322 322 321 320 322 323 324 325 326 324
316 318 319 319 319 319 319 320 321 322 322 322 322 323 320 320 320 322 323 325 326 325
316 318 319 316 317 318 318 319 321 320 321 321 324 306 312 320 323 324 323 324 324 323
316 318 318 317 317 317 315 314 316 316 317 318 317 304 307 313 324 323 322 324 324 325
314 317 316 315 316 313 311 312 312 312 313 317 315 303 306 312 324 323 323 324 325 324
314 315 314 313 314 311 310 309 310 310 312 314 312 302 302 316 323 322 321 322 323 324
313 316 314 314 313 311 310 309 310 309 309 307 309 299 302 315 319 316 317 317 316 309
311 317 315 314 314 311 310 309 308 308 306 305 308 306 301 305 318 316 312 313 311 310

GFSNIL_sfc_thetae_006.txt.gz
Theta_e
319 317 316 317 317 316 316 318 319 321 322 323 324 323 323 323 322 322 324 323 324 324
319 317 317 318 317 316 317 319 320 321 322 323 324 324 324 324 325 324 324 324 325 326
319 318 318 318 317 317 318 320 320 321 322 323 324 324 324 325 327 327 325 326 327 326
320 319 318 319 318 318 318 319 320 322 322 323 323 323 325 325 326 326 326 326 326 325
321 320 318 318 318 318 318 320 321 323 323 323 323 324 325 325 326 326 325 325 325 324
320 318 318 317 318 318 319 320 322 323 323 322 323 322 322 323 324 326 326 326 325 325
319 319 318 319 319 319 320 321 322 323 323 323 324 323 322 323 325 326 326 326 326 326
318 319 319 319 320 320 321 322 323 324 323 324 323 323 322 322 323 325 326 326 326 326
319 320 319 319 319 320 321 321 323 323 324 323 324 305 311 319 322 325 326 323 323 323
319 319 318 319 319 319 319 320 321 320 322 323 320 302 305 311 325 324 325 324 324 325
319 319 318 318 318 316 316 317 317 317 320 320 317 302 303 310 325 324 325 326 326 326
317 318 317 317 316 314 314 314 315 316 320 320 316 300 302 317 325 325 325 326 325 325
317 318 316 316 315 314 314 314 314 314 318 313 318 300 302 316 323 321 321 322 321 311
316 317 317 315 315 314 313 313 312 311 311 315 315 312 300 306 322 320 319 320 318 320

GFSNIL_sfc_thetae_009.txt.gz
Theta_e
332 330 329 329 330 329 328 328 331 331 332 332 332 332 332 331 330 331 332 331 330 330
331 328 329 329 330 328 329 329 330 330 332 332 333 333 333 332 331 331 331 331 331 328
330 329 330 329 328 329 329 330 330 330 332 333 333 333 333 330 331 331 332 329 331 330
330 329 329 329 328 328 329 329 328 329 330 332 332 332 330 330 329 329 330 330 328 328
331 330 329 328 328 328 328 329 328 330 329 330 331 329 328 326 327 327 327 326 326 326
331 330 330 328 328 328 328 329 329 330 330 330 330 331 331 328 328 328 328 328 326 327
330 330 329 328 329 328 329 329 330 331 330 331 330 329 330 328 329 330 329 328 329 328
330 330 329 329 329 329 330 330 331 331 331 332 331 329 329 327 329 330 329 329 329 331
329 328 329 329 329 329 329 331 331 330 330 331 329 305 313 323 327 330 330 330 327 326
328 327 327 328 328 328 329 331 331 330 331 331 329 302 305 313 328 329 328 331 328 327
327 326 327 328 328 329 329 330 330 330 331 330 326 301 303 309 328 328 328 331 330 329
327 326 327 327 328 327 328 328 327 328 329 330 323 301 303 318 326 327 328 332 331 328
328 327 328 329 328 327 328 327 325 327 331 319 322 299 303 320 327 325 326 329 329 311
327 329 330 331 328 326 326 325 326 325 326 329 326 317 300 308 325 326 327 326 328 328

GFSNIL_sfc_thetae_012.txt.gz
Theta_e
338 333 333 333 333 333 333 332 334 334 335 335 334 335 335 333 332 333 334 332 332 334
337 335 333 333 336 332 335 331 334 334 335 335 335 335 336 336 334 333 334 333 334 334
336 336 335 334 332 332 333 332 332 333 335 335 336 336 337 336 335 333 334 333 330 332
335 335 334 333 332 333 333 333 331 332 334 333 334 335 333 332 331 331 332 331 333 332
335 335 334 332 332 332 332 332 330 331 332 332 332 335 330 329 328 329 330 331 329 328
334 334 334 332 333 332 331 330 329 330 329 332 331 332 332 330 328 328 330 329 326 327
332 334 333 333 332 331 331 330 331 332 332 332 331 333 331 330 331 331 331 330 328 327
335 334 333 332 332 332 332 332 332 332 333 333 332 332 332 330 333 333 330 330 330 332
332 331 332 332 332 333 332 333 333 332 332 333 329 311 315 325 332 334 333 328 330 329
330 329 330 331 331 332 333 334 333 333 333 332 331 306 308 315 332 335 333 329 328 327
329 329 330 330 331 333 334 334 334 334 334 333 326 303 303 309 333 334 333 335 334 332
329 330 331 331 333 334 334 334 332 334 334 333 329 302 303 317 329 333 332 333 334 334
330 330 330 332 332 335 334 332 331 332 334 322 331 301 302 318 329 330 330 333 331 309
331 332 333 334 333 333 332 332 332 333 333 332 325 324 301 309 330 330 330 329 328 326

GFSNIL_sfc_thetae_015.txt.gz
Theta_e
338 334 333 335 333 335 334 335 336 335 336 336 336 336 337 332 333 335 336 333 335 335
337 335 336 336 336 333 335 333 334 334 335 335 335 335 336 337 335 333 334 334 335 335
335 336 336 335 334 335 335 333 333 334 335 335 335 335 336 336 335 334 336 334 335 334
335 335 335 334 333 335 334 335 331 331 333 333 334 335 336 334 332 332 333 332 330 331
334 335 335 334 332 334 333 333 330 331 330 331 333 335 332 330 330 331 330 332 330 328
333 335 335 333 334 332 331 330 330 330 329 331 332 332 332 331 329 332 330 327 327 329
334 335 335 335 333 331 330 329 330 331 331 331 332 332 332 333 332 331 329 328 328 328
334 334 332 332 331 331 330 330 332 332 331 332 333 330 332 333 334 333 333 332 329 330
332 331 332 332 331 331 331 332 333 331 332 332 328 310 313 323 333 333 332 329 328 331
330 330 330 331 331 331 335 337 334 334 333 332 330 308 308 310 334 335 333 332 330 330
329 329 330 331 331 333 338 335 334 334 334 333 326 305 305 306 335 335 333 333 333 333
330 330 331 331 332 334 337 337 336 336 334 332 329 304 303 314 334 333 331 332 335 334
331 331 331 333 334 335 335 333 334 334 334 323 330 303 302 314 333 333 333 334 329 309
332 332 334 334 335 335 334 333 335 333 334 333 330 323 303 306 331 333 331 329 330 326

GFSNIL_sfc_thetae_018.txt.gz
Theta_e
343 337 339 340 337 336 335 335 336 336 336 336 336 335 334 333 332 332 329 329 329 329
341 337 337 339 338 336 337 334 335 334 336 336 335 335 334 333 332 332 332 331 330 328
335 338 338 339 336 335 335 335 335 334 336 336 334 334 333 331 334 332 332 332 331 329
335 333 332 335 332 335 336 331 333 334 333 333 334 333 333 331 332 331 331 329 327 328
334 334 335 334 331 335 331 335 331 330 330 333 333 334 332 330 331 328 326 328 327 326
333 336 336 334 332 332 332 333 331 328 331 332 332 333 331 331 331 327 327 324 325 325
334 335 335 332 333 334 333 332 329 331 332 332 333 332 331 332 331 328 326 326 327 326
334 335 333 331 334 332 333 330 330 330 331 332 332 326 329 331 331 329 326 328 328 324
332 332 331 332 334 333 331 331 330 329 331 331 325 308 312 322 330 331 329 326 327 322
331 330 331 331 330 331 331 332 331 331 331 329 324 304 304 308 333 331 331 328 329 327
328 328 330 330 331 333 333 333 333 332 333 329 320 307 303 305 332 332 330 331 330 329
328 329 328 329 330 333 334 333 333 334 332 328 325 306 302 317 331 331 331 331 331 329
330 330 330 333 334 335 335 335 333 331 333 320 326 304 302 317 331 329 329 328 322 311
332 335 336 336 336 336 330 332 333 331 332 331 327 318 304 307 332 330 328 327 325 316

GFSNIL_sfc_thetae_021.txt.gz
Theta_e
327 325 326 325 325 325 324 325 324 325 326 327 328 328 326 324 324 324 322 321 321 321
327 327 326 326 325 324 325 325 326 325 326 328 328 328 326 324 322 324 322 323 322 323
328 328 327 326 324 325 324 325 325 325 327 328 327 328 325 323 326 327 325 324 322 323
328 328 325 325 327 324 323 327 325 326 327 328 326 326 324 323 325 326 326 323 322 322
328 325 325 324 325 324 321 322 324 326 330 328 328 325 324 325 327 326 323 324 324 321
328 325 324 324 327 323 322 325 326 326 326 327 327 326 325 325 327 326 323 323 322 321
325 325 325 325 324 327 324 324 326 328 328 329 327 327 329 329 327 325 323 322 324 324
326 326 325 325 323 325 325 323 327 327 326 324 322 321 325 328 326 324 323 324 324 324
329 328 327 326 327 321 324 326 326 327 324 320 320 305 309 319 326 325 325 323 321 322
328 326 327 327 322 323 324 327 325 324 320 317 313 302 303 309 325 326 324 325 325 324
326 324 325 326 324 324 322 322 322 324 320 317 313 303 302 312 325 324 324 324 325 324
325 323 326 326 323 323 323 323 322 324 320 317 313 304 301 319 324 324 324 326 326 324
325 326 326 327 323 323 324 325 328 325 322 315 315 305 301 318 326 323 322 321 320 311
325 327 326 325 324 325 325 325 324 323 321 320 317 311 302 309 325 324 322 320 319 316

GFSNIL_sfc_thetae_024.txt.gz
Theta_e
324 324 323 322 322 322 322 322 323 323 322 323 325 326 325 322 322 322 321 319 319 318
325 324 323 322 322 322 322 323 322 324 324 325 327 327 325 323 322 322 320 321 320 320
325 325 324 323 323 323 321 323 324 323 325 326 325 325 324 322 324 323 323 323 323 322
324 324 323 322 322 322 321 322 323 324 325 325 324 323 322 324 325 325 324 323 321 321
323 322 322 322 322 321 320 322 323 324 327 326 326 324 323 325 326 322 323 322 321 319
325 322 321 322 322 320 319 321 326 322 325 325 325 324 324 326 326 323 322 322 321 319
323 322 321 322 321 320 320 324 324 326 328 326 325 326 328 328 326 323 322 321 321 321
325 323 322 322 321 326 324 325 326 327 323 321 321 319 321 325 323 322 321 322 324 325
327 324 324 321 320 321 321 323 325 323 320 318 318 303 307 319 322 323 322 320 322 322
325 324 323 324 322 319 324 323 325 319 316 315 313 302 302 312 323 321 322 323 322 321
323 322 322 321 318 319 320 320 320 317 316 314 314 302 302 310 322 321 324 324 322 320
323 321 323 323 319 319 320 318 319 318 316 315 313 301 303 316 321 321 324 325 323 322
323 323 323 324 320 320 320 322 322 319 317 312 315 300 302 316 323 321 322 323 319 309
322 322 322 321 320 321 321 321 322 319 316 315 314 310 302 308 321 322 322 321 319 315

GFSNIL_sfc_thetae_027.txt.gz
Theta_e
322 322 321 322 322 320 320 321 322 322 321 321 322 322 321 321 320 320 319 318 317 316
322 322 321 321 321 321 320 322 322 321 321 322 323 324 323 322 321 322 321 319 317 316
322 322 321 321 321 320 320 320 321 321 322 322 324 323 323 321 322 322 322 320 320 318
322 322 321 321 321 320 319 321 321 322 323 324 323 322 320 322 324 324 323 323 319 319
321 320 319 320 320 320 319 321 321 322 324 325 324 322 321 322 325 323 322 322 320 318
320 319 319 320 320 318 318 319 320 321 321 324 324 323 323 325 325 322 322 321 321 318
319 319 319 320 319 317 318 319 322 324 326 325 324 324 327 327 325 322 321 321 321 320
323 321 320 320 318 319 319 323 326 326 322 321 320 316 320 325 321 321 321 322 324 324
325 321 319 319 319 319 320 323 325 321 320 317 317 301 309 318 322 323 321 321 322 321
323 321 321 320 318 317 321 323 323 318 316 314 314 300 305 310 321 320 322 322 321 321
322 321 320 320 317 318 320 323 319 314 314 313 313 300 303 309 321 323 323 322 321 320
321 319 319 316 316 316 316 316 315 315 314 314 314 300 303 314 323 323 322 321 322 321
320 319 319 318 317 317 317 317 319 316 315 311 316 300 303 314 323 322 320 320 317 307
320 320 320 319 318 319 318 320 318 316 314 314 313 311 302 306 322 322 320 319 317 312

GFSNIL_sfc_thetae_030.txt.gz
Theta_e
325 325 325 324 324 323 323 324 324 325 325 324 324 324 324 324 324 324 323 322 321 321
323 323 323 322 323 322 323 324 324 325 324 323 325 325 325 324 324 324 324 323 323 321
323 323 323 323 322 323 323 324 323 323 324 325 326 326 326 325 325 324 324 324 322 321
322 323 323 323 322 323 322 322 323 324 325 326 326 325 324 325 325 324 323 324 323 323
322 322 321 322 322 321 321 323 324 325 326 327 326 325 324 323 325 324 322 323 322 322
320 320 320 321 322 321 322 323 324 323 324 326 326 325 325 324 325 323 322 322 322 322
320 320 321 322 321 320 321 321 323 324 327 326 325 324 325 327 326 323 322 323 322 321
320 321 321 321 320 320 321 323 326 327 324 323 321 316 320 326 324 322 322 324 323 324
324 321 321 321 320 321 323 326 326 323 322 320 317 302 309 319 324 323 323 323 324 323
323 321 321 321 321 319 322 325 324 320 319 318 317 300 307 310 323 324 323 322 322 321
323 321 321 320 319 321 324 324 322 318 317 318 314 302 303 308 325 325 323 321 321 319
322 321 320 319 317 319 321 320 319 318 317 319 317 301 303 317 324 322 321 322 321 321
322 320 320 318 318 320 320 320 320 317 318 312 318 301 302 316 324 320 319 318 316 306
321 320 321 319 321 321 321 321 319 317 318 319 316 311 301 307 323 321 319 317 316 311

GFSNIL_sfc_thetae_033.txt.gz
Theta_e
341 340 340 340 339 336 336 337 340 339 337 336 336 335 335 333 333 333 332 331 331 329
339 339 337 339 339 337 338 337 337 337 336 336 335 335 335 333 334 334 329 332 333 330
337 338 337 338 336 337 338 337 336 335 335 334 334 335 337 335 335 334 327 328 332 332
335 336 336 336 336 336 336 336 334 333 333 334 335 336 335 335 334 328 326 325 330 330
335 335 335 334 335 335 334 333 333 333 333 333 333 334 333 332 329 326 324 323 326 329
333 334 334 334 333 333 332 333 333 333 331 331 333 333 333 329 326 325 325 325 325 329
332 333 333 333 332 332 332 332 332 332 332 333 333 331 331 330 328 325 326 324 327 329
332 333 332 331 331 331 332 331 331 332 332 332 329 325 327 330 328 326 322 326 324 329
331 331 331 331 330 330 330 333 331 332 330 328 327 302 309 322 327 325 324 325 327 327
330 329 330 329 329 329 331 331 328 331 329 328 329 302 305 311 328 328 325 324 323 323
329 328 329 328 328 331 331 330 327 330 329 330 322 302 302 308 328 327 326 323 323 321
329 328 328 328 330 332 332 327 328 329 328 330 323 301 302 317 327 325 323 323 323 321
329 328 328 329 330 332 334 331 329 327 329 316 324 300 303 317 325 321 319 319 318 308
329 329 330 330 330 331 331 330 329 327 329 326 322 316 300 308 324 321 321 319 317 311

GFSNIL_sfc_thetae_036.txt.gz
Theta_e
351 348 347 349 346 344 342 343 347 346 345 344 343 341 341 336 335 337 335 334 333 335
350 350 348 348 347 343 345 343 345 345 343 342 341 340 339 334 336 336 337 333 334 334
348 348 347 346 342 343 344 343 344 343 342 340 338 338 339 336 338 337 335 331 334 336
345 344 344 342 343 344 344 343 340 339 337 336 336 338 339 339 337 334 332 328 326 331
341 341 342 342 342 343 341 339 335 334 334 335 336 337 336 334 334 328 325 326 326 331
341 341 341 341 341 339 337 335 334 335 335 334 334 335 335 334 333 326 326 326 326 330
338 339 339 339 338 336 335 335 335 335 333 334 335 333 333 334 332 329 325 328 329 331
336 337 336 335 335 335 335 334 333 334 334 335 334 330 334 332 329 326 328 325 327 333
335 335 334 334 334 334 333 333 333 333 333 333 331 305 310 323 331 326 325 328 328 333
333 333 333 332 332 332 333 335 334 334 333 334 334 305 306 311 331 326 326 326 327 325
331 331 331 331 331 333 334 335 335 334 334 335 327 304 303 309 332 328 326 326 325 326
330 330 329 329 332 333 334 333 334 334 334 334 331 303 303 315 330 325 323 324 324 324
330 330 330 331 332 334 333 332 331 333 335 319 329 301 303 316 325 322 319 321 321 309
331 330 331 332 334 334 333 333 333 332 333 329 327 321 302 308 326 322 321 320 318 316

GFSNIL_sfc_thetae_039.txt.gz
Theta_e
355 349 350 349 347 345 345 346 352 350 348 346 344 342 344 340 338 340 335 336 336 335
351 355 351 357 356 347 350 347 349 347 345 343 342 342 343 337 337 340 339 338 337 336
353 353 352 351 351 349 349 346 344 343 342 342 341 341 341 338 340 338 341 337 334 335
348 348 348 348 345 345 346 343 341 341 340 338 337 338 340 339 337 335 336 334 329 330
346 347 345 343 343 343 341 341 338 337 335 334 335 338 338 335 335 334 332 327 326 326
343 343 344 342 342 341 339 337 335 334 333 333 335 335 336 335 334 334 331 329 327 328
341 341 341 340 340 338 336 335 334 336 334 335 334 333 332 335 335 333 330 326 328 329
339 339 337 336 336 336 336 334 334 333 334 334 332 330 334 335 334 329 326 327 328 332
333 333 335 336 335 335 334 334 335 334 334 333 330 308 311 325 331 330 327 326 329 333
331 331 333 333 332 333 336 337 334 334 334 335 332 306 308 314 331 328 327 328 328 330
331 330 332 331 331 335 334 335 337 335 335 336 326 306 306 310 332 328 326 327 329 330
329 329 329 330 333 333 335 334 336 335 335 335 329 305 305 316 331 326 325 325 325 328
331 330 329 331 332 336 336 333 332 334 336 321 327 303 306 320 326 323 320 323 321 308
331 331 331 334 334 335 335 334 333 334 333 332 328 321 306 310 326 321 321 320 319 322

GFSNIL_sfc_thetae_042.txt.gz
Theta_e
348 350 349 345 342 341 339 340 345 344 346 346 345 343 343 340 340 339 336 334 333 332
351 352 348 347 345 344 344 344 345 347 346 344 343 341 342 340 337 337 336 334 334 333
353 354 351 350 347 346 347 346 347 345 344 342 341 341 340 337 337 335 335 334 333 330
351 351 351 348 346 346 347 345 344 342 339 337 338 340 338 336 336 333 333 332 331 329
347 347 345 343 342 344 343 343 341 340 338 338 336 336 336 334 334 332 331 330 326 323
340 340 341 341 342 343 341 342 338 337 335 334 335 333 336 336 334 333 331 328 324 325
341 342 342 342 343 340 339 337 337 336 334 334 333 334 335 335 334 332 329 327 326 327
342 342 341 340 339 337 337 333 334 333 333 332 330 328 334 335 333 330 326 326 326 329
338 338 338 338 332 331 334 334 332 332 332 328 326 306 311 328 329 329 327 326 325 328
333 331 331 333 332 332 334 335 333 333 333 331 324 306 308 318 331 327 326 327 327 329
331 331 331 331 331 331 335 336 335 334 334 329 320 307 307 309 330 327 325 326 327 329
330 330 330 331 331 333 335 334 334 334 333 329 323 304 306 318 329 324 323 325 327 328
330 329 330 332 331 334 334 334 333 333 333 318 324 302 307 321 327 323 322 322 323 306
329 331 332 332 334 335 333 333 332 332 330 328 325 317 307 310 323 322 321 320 321 317

GFSNIL_sfc_thetae_045.txt.gz
Theta_e
336 342 340 340 338 336 335 334 337 339 339 340 340 337 337 335 331 330 329 326 324 323
335 341 339 337 337 336 335 337 339 340 337 339 339 337 335 333 330 329 327 326 325 324
340 343 339 338 336 336 335 337 338 338 339 337 336 334 331 329 328 328 327 326 326 324
342 343 341 340 339 338 338 339 339 339 336 335 335 334 328 327 329 326 325 325 326 324
342 344 342 340 341 341 338 339 338 336 335 334 332 332 329 328 329 325 324 324 324 323
339 339 337 338 337 339 336 334 334 332 331 332 330 330 330 328 327 326 325 325 322 321
336 337 336 336 336 335 334 332 329 328 329 332 332 332 331 329 326 325 324 324 323 325
336 336 336 335 333 331 327 327 328 329 329 327 327 329 329 328 326 324 322 322 324 325
334 333 331 328 330 328 327 327 328 327 326 324 323 306 315 323 324 323 324 320 323 323
332 330 330 326 327 327 327 327 329 328 325 320 315 305 308 318 323 322 322 320 322 324
329 326 325 327 326 327 327 327 329 328 324 317 314 305 309 313 324 323 323 323 323 322
326 325 327 326 326 327 326 323 324 325 321 316 315 304 308 318 322 322 321 321 319 322
329 327 327 327 328 327 324 325 327 326 322 313 315 302 311 320 321 320 320 320 319 304
326 327 327 328 327 324 324 325 325 322 320 319 316 312 307 311 322 321 320 318 316 311

GFSNIL_sfc_thetae_048.txt.gz
Theta_e
330 330 332 336 337 338 337 336 337 336 336 339 340 338 335 332 331 331 330 328 323 321
331 332 336 336 337 335 334 336 335 336 335 339 339 336 332 332 332 331 329 324 322 321
332 338 337 337 334 334 333 335 335 333 334 335 336 333 331 331 331 328 324 323 322 322
335 336 336 335 335 334 333 334 335 336 335 336 335 334 331 327 327 325 323 323 323 322
338 336 335 334 335 335 335 337 337 337 337 336 334 331 327 325 327 324 322 322 322 322
339 337 336 337 337 337 337 336 338 337 335 334 332 329 327 327 326 324 322 322 323 322
338 337 337 337 337 336 337 335 335 332 332 329 329 329 328 326 324 323 323 323 323 322
334 334 334 333 334 334 334 332 329 326 326 328 331 330 329 326 323 321 320 321 322 323
333 334 333 332 329 327 326 325 326 323 323 324 324 307 312 321 321 321 320 321 322 325
333 331 330 328 326 323 322 322 322 323 322 320 315 303 306 313 321 321 321 320 319 323
331 329 325 326 324 322 325 326 324 322 320 316 312 303 306 311 321 321 321 321 322 322
328 325 323 322 324 325 327 327 324 320 316 314 314 303 306 314 320 319 318 318 321 322
325 324 323 325 325 326 325 323 322 319 316 311 316 302 304 314 318 318 318 318 316 306
325 326 327 326 326 325 323 323 320 318 316 315 317 311 303 308 321 320 318 317 314 310

GFSNIL_sfc_thetae_051.txt.gz
Theta_e
328 327 325 325 329 330 332 333 336 338 337 337 337 336 333 334 332 331 329 326 326 324
324 323 325 327 331 332 332 335 337 337 336 337 337 335 334 333 331 330 330 328 325 323
324 326 328 331 332 332 331 335 334 333 333 335 337 336 333 331 332 328 326 326 323 319
325 329 331 332 332 332 333 334 334 334 332 334 332 334 331 328 329 328 325 321 321 320
329 332 332 332 332 332 333 334 334 335 334 335 334 333 331 329 329 324 321 320 320 320
331 332 332 332 332 333 334 334 335 335 335 336 334 331 330 328 325 323 321 321 321 321
332 333 333 333 333 334 335 335 335 335 334 335 333 331 326 325 323 322 321 320 321 321
335 335 335 335 335 336 335 335 333 332 331 330 329 327 325 324 322 320 319 320 321 321
334 335 334 335 335 334 330 328 328 327 325 324 324 307 313 320 320 319 318 319 319 322
334 331 331 330 329 327 326 324 323 320 321 318 316 303 305 311 320 318 318 319 319 321
331 329 327 327 325 324 324 322 320 318 318 318 312 302 303 308 319 318 318 319 321 322
328 326 326 324 324 324 321 319 318 319 318 318 313 301 301 312 318 317 316 317 320 322
327 325 324 324 324 322 322 321 319 317 316 313 315 300 300 312 316 317 314 315 316 308
324 324 324 322 323 323 322 319 316 314 315 318 317 310 300 305 317 317 315 316 314 311

GFSNIL_sfc_thetae_054.txt.gz
Theta_e
333 334 332 331 329 328 329 331 336 337 337 337 338 337 337 336 335 332 332 330 329 328
329 328 329 327 329 328 331 334 336 337 337 338 339 338 336 335 334 332 331 330 329 329
325 328 327 325 327 330 332 336 336 337 338 338 338 337 336 335 333 331 331 330 328 326
320 324 325 327 329 331 333 335 336 337 337 338 337 337 335 333 332 330 329 328 327 325
321 325 327 329 331 333 334 336 336 336 337 337 336 335 333 331 331 330 327 326 325 324
323 327 328 330 331 333 334 335 336 336 336 335 335 334 333 333 330 327 327 326 325 325
325 329 330 331 332 334 335 335 335 335 336 336 334 334 332 329 328 327 326 325 326 325
329 331 332 333 333 335 335 336 336 335 336 336 335 331 328 328 326 326 325 324 324 326
332 332 333 332 334 335 335 334 334 334 333 331 328 309 312 322 325 324 324 323 324 325
332 332 333 334 335 333 331 332 330 328 327 323 320 303 306 311 325 324 323 323 323 324
333 332 332 332 330 329 328 326 325 324 322 320 313 301 302 307 323 323 323 323 323 324
331 330 328 326 326 325 324 322 322 322 319 318 313 300 301 315 322 321 321 322 324 324
329 327 326 326 325 324 323 320 320 319 320 313 314 299 300 314 320 319 319 320 319 306
328 326 326 326 324 321 319 318 317 317 319 319 316 308 299 304 321 319 319 319 316 314

GFSNIL_sfc_thetae_057.txt.gz
Theta_e
332 333 337 341 338 337 337 343 352 349 350 349 348 347 345 343 343 343 342 341 337 336
329 335 338 346 346 342 343 343 347 347 347 347 347 347 346 345 345 344 343 338 337 335
326 333 337 343 343 344 345 344 344 345 347 348 348 348 349 347 347 345 340 337 338 340
325 330 335 336 339 341 343 343 343 345 346 347 348 349 348 344 345 340 336 337 336 336
325 329 332 334 337 340 341 343 343 345 346 348 348 348 345 342 341 336 334 337 339 337
325 329 332 333 337 340 341 342 343 345 346 347 347 345 342 344 341 340 341 339 337 338
327 331 332 334 337 339 341 342 344 345 346 347 345 344 343 342 340 339 334 335 339 337
331 333 333 334 337 339 341 342 344 345 345 345 344 341 342 338 336 333 336 337 336 337
333 332 333 336 337 338 341 343 344 344 344 343 340 311 315 328 335 336 336 335 335 335
335 332 333 334 334 335 338 342 342 344 343 342 339 307 309 315 336 336 336 335 333 331
333 331 332 333 334 335 340 342 342 341 339 334 321 303 303 310 337 336 335 335 334 332
331 330 331 333 334 337 339 337 337 334 330 322 315 301 303 321 334 332 332 332 332 332
332 332 334 333 334 335 336 332 326 326 330 319 321 299 302 320 330 328 326 327 328 306
332 333 333 333 333 330 329 324 325 324 324 324 321 313 300 306 329 327 327 327 328 321

GFSNIL_sfc_thetae_060.txt.gz
Theta_e
332 331 335 339 337 338 341 344 356 356 356 357 357 357 356 352 350 351 349 350 350 346
329 331 334 346 349 340 347 344 351 353 355 355 356 355 355 349 350 351 351 350 350 346
327 331 335 339 345 348 350 349 348 350 353 354 355 353 353 350 353 352 351 350 349 347
325 327 330 334 339 345 352 349 346 348 351 352 351 352 353 355 354 352 351 349 348 346
325 327 329 333 338 342 344 348 348 349 349 348 348 353 353 353 351 349 347 346 345 343
329 330 331 333 338 342 342 346 348 348 347 346 347 351 353 352 348 347 346 345 344 343
330 333 333 334 338 341 341 344 347 348 346 346 348 350 352 350 348 346 345 345 345 343
330 333 335 334 337 341 341 342 345 346 346 348 349 348 350 348 347 345 344 344 342 343
327 330 334 336 339 340 340 342 344 345 345 348 346 314 318 337 345 343 342 338 340 340
327 329 332 336 338 339 342 347 346 346 347 347 347 311 313 318 341 340 339 338 339 337
325 328 332 336 338 342 344 349 349 348 348 345 338 308 308 313 340 339 339 340 339 338
325 329 332 336 338 339 340 343 343 344 345 346 330 303 306 321 338 337 338 337 337 335
328 327 332 334 334 338 340 341 341 342 343 326 330 301 305 319 333 335 333 333 333 309
327 328 332 333 336 338 338 339 338 337 335 330 323 315 303 306 334 332 331 330 330 330

GFSNIL_sfc_thetae_063.txt.gz
Theta_e
334 328 330 336 336 334 336 344 364 363 358 359 361 362 357 358 358 360 356 357 354 347
330 334 333 341 344 338 346 341 348 360 360 359 359 362 363 357 360 358 357 355 357 351
329 329 333 338 340 342 346 352 349 352 356 358 359 362 363 358 357 354 352 350 352 352
328 329 331 334 336 340 345 348 348 349 349 351 354 360 360 357 354 352 355 355 352 351
327 330 333 333 334 339 342 347 348 347 345 347 352 356 356 353 349 352 352 351 351 348
326 330 336 336 337 339 339 343 344 346 347 347 352 355 354 351 351 353 353 352 348 346
326 330 332 337 338 336 335 339 342 347 346 349 349 350 350 352 354 353 351 352 349 345
325 327 328 331 336 336 338 339 338 344 347 351 352 348 352 353 354 353 349 348 345 347
320 322 327 331 336 339 337 341 342 344 347 350 346 320 321 344 353 349 347 346 344 344
319 320 324 327 331 334 341 346 347 347 350 351 353 312 313 320 350 347 347 345 343 341
317 319 323 325 332 336 342 346 348 349 353 353 347 308 311 316 348 346 343 342 341 341
317 319 322 324 333 338 341 344 348 351 352 351 336 306 311 325 344 340 339 339 340 338
316 318 322 328 333 339 342 344 346 346 349 333 338 304 309 322 337 338 335 338 336 310
319 321 326 330 336 340 342 341 342 342 343 342 336 323 304 306 337 333 333 332 331 331

GFSNIL_sfc_thetae_066.txt.gz
Theta_e
333 331 331 333 332 333 333 338 347 348 347 344 347 349 351 352 349 352 352 351 349 348
335 334 330 332 335 332 334 339 341 342 352 352 352 354 354 349 345 349 353 352 351 351
332 335 333 333 332 334 336 337 338 343 348 357 354 354 355 353 353 353 352 352 350 348
329 330 335 333 331 332 335 337 338 339 343 346 354 354 353 352 354 352 352 350 347 347
325 328 332 334 333 333 331 333 336 340 341 345 345 346 348 350 353 350 348 347 345 347
326 328 328 331 334 333 332 332 334 336 341 343 343 343 349 352 352 348 347 347 347 347
324 326 328 330 331 332 334 331 331 334 338 341 345 344 347 351 350 347 348 349 349 347
320 324 325 324 326 329 331 333 332 332 336 341 344 346 349 350 349 347 347 347 346 346
317 319 321 323 325 328 330 332 335 332 335 337 343 325 321 340 348 349 347 343 344 343
314 316 318 320 322 323 327 331 333 334 336 338 345 315 313 321 349 347 344 343 343 340
311 314 316 318 320 323 327 330 331 334 337 341 343 309 309 316 347 345 344 344 344 341
311 311 316 316 319 324 328 329 330 333 337 341 337 305 308 328 343 342 340 342 341 339
311 309 312 317 319 323 327 329 329 331 338 332 339 306 309 330 341 338 337 333 328 312
311 310 312 319 321 322 325 327 329 333 338 341 335 321 308 312 338 336 334 333 332 324

GFSNIL_sfc_thetae_069.txt.gz
Theta_e
317 320 322 323 325 325 328 333 337 334 330 329 335 339 340 342 340 342 342 341 344 339
322 322 320 320 322 324 325 328 331 334 331 333 335 342 341 340 341 342 342 348 347 345
321 323 322 322 322 322 323 327 329 329 335 338 341 342 333 340 342 343 341 340 343 345
316 317 319 324 324 324 324 327 330 329 330 332 337 345 343 345 347 345 346 346 345 343
317 318 317 319 323 324 323 324 327 330 332 334 335 340 348 347 348 348 346 347 343 343
311 315 316 319 321 323 325 324 324 325 326 329 336 336 340 345 346 346 346 346 343 341
307 310 315 318 321 323 326 326 326 326 326 328 330 336 339 339 341 343 347 345 344 342
307 308 310 314 318 320 321 322 323 325 328 328 329 332 337 340 341 345 343 342 344 343
308 309 309 311 315 317 318 320 323 325 327 327 328 318 316 330 339 345 339 340 342 338
308 309 309 310 314 314 315 318 321 324 325 326 328 314 313 312 342 340 340 339 335 334
308 308 308 308 309 311 311 313 316 319 322 325 329 313 310 310 334 340 336 335 336 332
307 306 307 307 307 308 311 314 317 321 324 326 328 309 306 309 332 335 334 336 335 332
307 306 306 307 307 308 313 316 318 320 322 320 327 312 305 309 335 331 330 326 327 315
307 307 307 307 307 307 310 314 316 320 321 325 325 328 302 305 334 331 328 326 322 315

GFSNIL_sfc_thetae_072.txt.gz
Theta_e
315 314 317 319 320 321 323 327 332 335 337 338 339 339 338 338 338 337 336 336 337 337
315 315 316 318 317 319 323 325 325 329 332 331 331 333 334 334 334 335 335 337 336 337
315 319 319 317 318 318 319 321 322 325 332 332 333 332 334 336 337 329 331 336 337 338
310 313 315 318 320 319 319 321 323 325 327 329 330 333 336 337 336 333 331 335 336 337
312 313 313 313 315 320 321 322 322 324 326 327 330 330 335 337 335 333 331 335 339 341
309 309 309 311 313 316 320 321 320 322 322 323 324 326 330 333 337 343 342 342 343 343
304 305 307 308 310 314 317 319 322 322 324 325 325 326 327 328 333 338 343 344 344 345
305 305 305 305 306 309 313 315 319 322 321 322 324 326 326 326 327 334 336 339 342 343
306 306 306 305 306 306 307 310 311 313 318 318 321 314 312 316 324 330 336 337 342 343
306 306 306 307 307 306 306 311 313 315 318 319 321 311 308 310 320 323 332 337 340 335
306 306 306 305 306 306 305 307 310 313 316 316 317 308 306 309 320 324 329 336 337 333
306 305 305 305 305 306 304 307 307 310 311 312 316 309 307 309 322 324 329 335 334 333
305 304 304 305 304 305 305 306 308 313 316 314 318 310 302 307 320 324 329 328 328 312
305 304 305 305 304 304 305 305 306 310 313 316 317 318 305 302 317 326 328 324 327 326

GFSNIL_sfc_thetae_075.txt.gz
Theta_e
313 313 314 315 318 318 319 323 325 328 331 334 336 337 337 336 335 334 334 334 335 335
311 311 312 313 314 316 318 323 323 322 325 329 331 334 334 333 334 335 336 335 335 334
313 313 313 313 314 314 316 317 319 319 322 326 328 328 328 330 332 332 332 330 328 330
312 312 315 315 314 314 315 315 317 320 321 323 324 327 329 332 333 334 334 333 330 331
306 308 309 310 311 313 315 317 319 320 322 323 324 324 324 326 330 333 331 332 332 332
307 308 309 310 309 311 313 315 317 319 320 321 322 321 322 325 327 328 331 336 338 336
305 306 306 307 307 308 310 312 314 317 319 321 322 323 323 323 323 327 329 333 335 341
303 304 304 305 305 306 307 308 309 310 312 317 320 320 320 321 321 322 323 327 333 337
305 304 304 304 304 304 304 305 305 306 307 307 309 306 309 314 318 320 321 322 327 333
305 305 305 305 304 303 302 303 304 305 308 310 312 306 305 308 316 317 317 320 323 328
305 305 304 304 303 302 302 302 303 305 307 308 313 307 304 305 312 314 318 321 324 326
305 304 304 304 303 302 301 301 302 305 306 307 309 304 302 304 315 318 320 323 326 329
305 305 304 304 303 303 301 303 305 305 306 307 310 306 300 303 316 316 319 322 325 313
304 305 305 304 303 302 301 303 303 303 305 307 310 313 301 298 313 316 317 321 325 327

GFSNIL_sfc_thetae_078.txt.gz
Theta_e
314 315 316 317 318 320 323 326 330 330 333 336 337 338 339 340 337 335 334 335 334 334
314 314 314 315 317 317 319 322 327 330 331 333 335 337 338 337 337 335 335 334 335 335
312 313 313 313 315 316 318 321 322 322 325 329 331 332 333 333 334 333 334 334 334 333
312 314 314 315 316 316 317 318 319 321 322 324 326 330 330 330 331 332 334 336 334 331
313 313 313 315 316 316 317 318 320 322 323 324 325 325 325 326 329 330 331 334 334 334
307 307 309 310 312 313 315 317 319 321 322 322 323 324 324 325 326 326 327 329 332 335
306 307 308 310 311 312 314 314 316 318 319 320 321 323 324 325 325 324 326 329 331 332
308 308 308 308 309 310 310 311 312 312 313 316 318 318 320 321 322 322 323 325 328 330
306 306 307 307 307 307 307 308 308 309 310 310 310 304 304 309 315 318 322 322 324 326
306 306 306 307 306 305 305 306 306 307 309 310 311 304 303 305 313 315 319 321 321 322
305 305 306 306 306 305 305 305 305 307 308 309 310 303 301 303 313 317 318 319 321 323
303 305 305 305 305 305 304 304 305 307 308 308 309 302 301 303 312 314 317 322 325 326
302 304 305 305 306 305 305 305 306 306 307 306 308 301 300 303 312 315 320 322 323 308
301 302 304 305 306 305 305 306 304 305 306 307 308 309 300 298 310 317 318 318 320 323

GFSNIL_sfc_thetae_081.txt.gz
Theta_e
336 335 337 340 337 338 339 341 346 346 346 346 345 345 341 337 334 334 335 337 340 335
330 330 329 333 334 332 335 335 338 341 342 343 346 345 345 341 341 342 343 341 342 338
327 328 329 329 330 331 332 332 334 337 337 337 339 342 345 343 344 343 342 341 342 342
326 327 327 327 329 329 330 330 331 331 331 333 335 338 339 338 337 336 337 337 336 336
324 325 326 326 328 329 328 330 328 329 329 330 330 333 332 330 330 329 328 328 329 329
321 323 325 327 329 329 329 328 327 327 328 328 330 329 331 329 329 330 329 328 327 327
321 322 324 326 326 326 326 325 326 328 327 327 326 325 325 325 325 325 325 327 328 327
316 319 321 320 322 323 324 325 325 325 323 322 321 318 320 319 319 320 321 323 323 325
310 313 316 318 319 321 322 322 321 319 318 319 315 305 306 312 317 318 319 320 323 324
308 310 312 314 317 319 320 321 319 318 318 318 319 302 303 305 317 318 320 323 326 326
308 308 310 311 313 317 318 319 318 318 318 318 318 302 301 302 318 318 320 323 327 328
307 308 308 310 312 314 316 316 316 317 317 317 318 301 299 305 316 315 318 320 324 326
307 307 307 310 312 313 314 314 314 315 317 313 318 300 299 304 313 314 314 319 327 309
308 307 308 310 312 313 312 313 314 315 318 317 316 315 298 298 313 312 312 315 323 325

GFSNIL_sfc_thetae_084.txt.gz
Theta_e
349 350 350 351 347 346 342 346 355 355 354 353 349 346 344 342 340 337 335 336 335 331
351 352 349 353 352 346 350 344 349 352 352 352 351 350 350 344 343 342 340 337 336 335
342 341 338 339 339 338 338 338 339 342 346 347 347 348 350 350 348 345 341 338 338 342
330 331 332 332 333 333 336 336 334 336 338 340 342 345 347 348 346 343 344 345 343 341
328 329 330 330 331 332 333 333 332 332 332 333 336 340 340 339 339 339 338 338 335 333
326 328 330 330 331 331 330 330 331 330 330 330 330 331 331 329 330 330 330 329 328 327
324 327 328 330 331 330 328 327 327 328 327 327 328 328 328 328 329 329 327 327 327 325
318 322 325 327 329 329 328 326 326 326 325 326 327 325 326 325 325 325 323 323 322 324
316 316 318 323 327 329 328 327 325 323 323 326 322 306 310 320 323 322 320 320 322 325
313 314 315 317 320 324 328 330 328 326 324 325 326 303 304 306 321 321 322 322 324 325
308 309 311 315 315 321 324 329 331 329 328 327 324 301 301 304 321 321 322 322 323 326
309 309 310 310 313 318 322 324 326 327 327 326 325 301 300 307 319 320 321 321 321 322
310 311 311 316 316 317 320 321 321 323 326 318 325 300 298 306 316 318 317 321 322 308
306 309 312 316 319 319 317 319 322 322 325 323 322 318 298 299 317 315 316 316 316 319

GFSNIL_sfc_thetae_087.txt.gz
Theta_e
350 351 353 352 348 349 346 351 358 356 358 356 355 353 352 348 348 347 341 343 341 337
348 348 348 353 350 350 350 342 353 355 357 355 353 354 354 348 348 348 348 346 346 340
342 347 349 351 343 343 345 349 350 354 355 354 355 354 355 349 348 346 343 343 346 344
335 340 342 338 334 340 346 347 346 346 347 348 350 353 351 351 348 347 346 348 345 343
331 334 337 336 330 337 338 340 336 338 337 338 339 345 343 343 343 342 342 344 344 342
327 330 333 332 336 334 335 334 332 331 331 332 333 335 338 338 339 339 340 340 339 337
321 327 330 332 331 330 330 330 329 330 329 328 329 332 333 334 336 335 334 333 331 329
321 321 324 328 330 330 330 328 327 328 329 329 330 327 330 331 332 333 329 328 324 327
315 319 319 321 326 329 328 327 328 325 326 329 324 310 313 328 331 327 325 323 322 323
314 314 318 318 319 325 332 336 333 329 328 328 330 305 307 315 329 329 327 325 325 324
312 313 315 315 314 323 329 332 332 333 331 328 326 303 304 309 331 329 327 326 325 327
309 311 313 314 312 320 320 328 331 329 333 332 328 300 300 309 325 324 324 323 324 324
305 307 306 315 316 314 319 318 322 325 330 325 332 298 299 310 316 324 320 326 325 309
303 306 306 306 317 317 314 316 318 321 325 326 327 313 298 299 320 317 318 318 319 321

GFSNIL_sfc_thetae_090.txt.gz
Theta_e
333 336 340 344 344 343 343 345 349 348 348 349 350 350 351 348 349 349 346 345 342 340
331 333 338 343 345 344 345 343 336 338 332 341 345 347 348 347 346 347 345 343 341 337
328 333 336 340 341 342 344 336 327 331 324 322 342 343 345 345 345 344 342 341 340 340
326 328 330 334 338 340 324 318 319 322 326 324 333 339 340 342 344 342 342 341 339 339
324 325 327 329 333 324 321 318 319 327 323 321 328 331 335 339 342 341 340 340 340 340
323 323 323 327 330 322 324 317 319 320 319 320 319 330 335 337 339 338 338 340 339 337
318 322 322 323 321 323 324 327 329 325 328 318 318 332 336 337 337 339 338 338 336 336
314 317 319 320 323 319 324 327 329 327 327 328 328 330 332 333 338 336 334 332 329 327
311 311 313 318 319 323 319 325 328 326 326 326 325 310 315 328 332 332 327 325 323 323
307 309 309 313 317 318 320 322 323 328 327 328 328 307 309 318 330 328 327 325 325 322
303 306 307 308 312 317 320 321 319 323 328 331 326 304 306 313 327 327 327 327 327 326
303 302 303 306 308 315 317 320 325 322 322 329 318 302 304 315 324 325 325 326 325 326
302 301 302 305 307 309 315 316 320 323 324 319 325 301 301 314 320 321 321 324 326 309
299 301 301 301 303 306 310 315 317 317 320 325 323 314 299 303 317 320 318 319 321 322

GFSNIL_sfc_thetae_093.txt.gz
Theta_e
318 322 323 325 328 330 334 340 341 342 343 343 345 346 344 343 343 340 342 339 338 337
317 318 320 324 327 329 333 338 339 333 334 338 342 343 334 325 324 338 342 341 340 337
316 318 318 321 323 326 330 328 322 324 325 328 328 328 330 327 324 322 333 340 337 333
313 316 318 317 320 325 324 318 319 322 324 325 323 326 321 322 324 322 322 334 334 332
310 313 314 315 317 321 319 318 320 323 325 325 324 324 320 321 322 320 320 332 333 334
307 308 311 314 315 318 319 317 317 323 323 324 324 323 322 323 321 321 324 330 333 334
304 306 307 308 311 316 319 317 315 317 322 322 323 321 319 320 319 321 325 333 336 332
303 304 305 306 308 310 316 319 322 322 319 317 317 320 319 319 321 325 327 332 333 331
301 301 302 303 304 306 307 314 321 319 321 316 318 314 309 316 317 323 329 326 321 318
300 300 301 303 302 303 304 307 316 319 319 319 317 309 306 309 322 328 321 318 315 316
297 298 300 301 300 302 302 304 311 315 317 317 317 309 307 309 325 320 319 317 315 318
297 298 299 299 300 299 300 303 308 315 316 315 315 308 305 316 320 318 317 319 318 317
297 296 296 297 298 299 301 303 306 311 313 313 314 309 303 315 318 316 317 316 316 311
297 297 297 297 299 300 300 303 304 308 314 318 317 314 301 303 318 316 315 315 314 311

GFSNIL_sfc_thetae_096.txt.gz
Theta_e
315 313 316 317 320 320 322 323 326 330 334 339 340 339 338 339 339 338 336 335 334 332
312 311 313 316 318 319 320 324 326 328 331 334 336 337 336 335 336 332 327 325 325 323
308 310 314 315 315 316 318 321 321 322 324 326 329 329 329 329 330 329 328 328 326 323
305 306 308 312 314 315 317 318 318 319 321 323 325 324 321 322 324 320 321 324 322 323
303 303 304 305 307 310 313 317 317 318 319 321 324 323 320 320 322 317 317 321 321 320
302 302 302 303 304 306 308 312 316 317 317 319 320 323 322 319 321 318 320 321 322 323
300 301 301 302 303 305 306 307 310 316 317 318 321 322 323 322 320 319 322 321 320 320
300 300 301 301 301 302 303 305 307 310 316 317 319 320 321 319 318 316 317 320 322 322
299 299 299 300 300 301 302 304 305 308 311 317 320 310 308 311 317 319 321 321 325 329
298 299 299 298 297 298 300 301 302 305 311 314 317 307 305 308 314 315 316 320 324 323
296 297 298 297 297 297 298 298 302 305 309 314 318 307 302 305 311 313 315 321 319 317
297 296 296 296 296 297 298 298 297 300 303 310 315 304 303 307 314 314 317 320 319 317
296 296 296 297 296 297 297 297 299 301 302 307 312 303 303 305 312 312 317 318 317 310
296 297 297 298 298 297 296 297 300 301 302 307 311 312 301 299 310 314 317 316 315 313

GFSNIL_sfc_thetae_099.txt.gz
Theta_e
308 309 309 311 314 315 316 317 319 320 323 325 329 332 333 333 334 335 336 336 334 334
303 304 305 308 311 314 316 318 319 321 321 320 323 326 328 329 331 333 333 334 333 327
302 303 304 305 306 309 311 313 315 317 318 318 319 321 323 326 328 329 331 331 327 326
301 302 302 302 304 305 307 309 310 313 315 317 318 319 320 322 324 325 327 331 330 329
300 301 300 301 301 303 304 306 307 309 312 314 318 318 319 320 321 322 322 323 325 326
299 299 299 300 301 301 302 303 305 306 307 311 314 316 318 320 321 321 322 320 319 320
297 298 299 300 300 301 301 301 301 302 304 307 309 315 318 320 320 321 321 320 322 321
298 298 297 298 299 301 302 301 301 301 304 306 309 309 315 317 319 320 320 321 320 320
296 297 296 297 298 300 298 297 299 301 302 301 305 306 309 311 314 317 318 317 319 321
296 296 296 297 297 297 296 297 298 298 299 300 304 303 304 305 312 314 312 313 314 319
296 296 297 296 296 297 297 297 298 299 300 302 303 303 301 305 311 311 312 314 316 318
296 295 295 296 296 297 297 297 297 298 299 298 299 299 299 303 311 312 313 317 320 320
294 295 295 296 296 297 298 297 298 297 298 300 299 299 298 302 313 311 313 316 318 308
295 295 296 297 298 298 298 298 297 297 297 299 302 302 300 298 312 310 314 315 316 317

GFSNIL_sfc_thetae_102.txt.gz
Theta_e
305 305 306 308 308 310 313 316 319 320 322 323 325 326 328 329 331 332 332 332 333 333
304 304 304 305 307 308 311 312 314 316 317 320 321 322 322 324 326 328 330 331 332 331
302 303 303 304 304 305 306 309 310 311 312 315 317 318 320 321 324 325 327 329 330 331
301 301 302 302 302 303 304 306 307 307 308 309 311 314 317 319 321 322 323 325 327 328
300 301 300 300 301 303 303 304 304 305 306 307 308 310 313 316 318 319 320 322 323 322
298 298 298 299 301 301 302 302 303 303 303 303 304 305 308 313 315 317 320 321 321 321
297 297 298 299 299 299 301 301 302 303 302 302 303 304 306 308 312 315 319 322 322 322
297 297 298 298 298 299 300 302 303 301 300 301 302 305 307 309 310 315 318 320 322 323
297 298 298 298 298 298 298 299 300 299 299 300 301 300 301 303 304 310 317 317 320 321
297 297 297 297 297 297 297 298 298 298 299 299 300 299 299 301 305 308 314 316 316 317
296 296 296 296 296 296 297 297 298 298 299 299 300 299 298 299 303 307 314 315 315 315
295 294 295 295 296 297 297 297 298 299 299 298 299 297 297 298 302 304 310 315 316 318
294 294 295 295 296 297 297 298 299 299 299 300 299 297 296 298 302 304 308 314 316 306
294 294 294 295 297 297 299 299 297 297 299 299 299 299 296 297 302 304 309 312 316 315

GFSNIL_sfc_thetae_105.txt.gz
Theta_e
314 312 313 314 313 313 313 314 319 320 321 323 324 328 331 330 329 332 331 333 335 327
313 313 312 313 314 312 314 314 315 316 316 317 318 320 322 322 326 328 330 331 333 332
311 311 311 311 311 311 312 312 312 312 313 314 314 315 317 318 321 322 325 327 331 332
309 309 309 309 309 310 310 310 310 310 310 310 311 313 313 315 316 317 321 326 326 328
308 308 307 307 308 309 308 309 309 309 309 309 309 309 309 309 310 312 316 319 323 324
306 306 306 306 307 307 307 307 307 307 307 307 308 307 306 307 308 309 312 316 318 321
304 305 305 305 305 306 306 305 306 307 307 308 307 306 306 306 308 309 311 314 318 319
303 304 304 304 304 305 305 305 306 306 306 307 306 305 306 306 305 306 306 309 312 319
301 301 301 302 303 304 305 305 306 305 305 305 305 302 301 303 304 304 306 308 310 314
300 299 300 301 302 303 303 303 302 303 305 303 303 300 299 300 304 303 302 305 310 314
298 298 299 300 301 300 301 303 303 303 302 301 303 299 298 299 303 303 303 306 308 315
297 297 299 297 298 300 302 303 303 302 302 301 301 299 297 298 301 302 303 306 308 312
296 296 296 297 300 302 303 301 302 302 303 300 300 298 296 297 301 300 302 305 307 307
296 296 297 300 302 301 300 299 301 301 301 300 300 301 296 296 299 299 302 302 311 317

GFSNIL_sfc_thetae_108.txt.gz
Theta_e
321 319 319 321 320 320 320 320 326 325 325 325 326 327 329 327 330 337 334 336 335 327
320 320 319 321 322 319 322 319 322 322 322 322 322 323 323 321 325 329 333 332 334 330
318 319 319 319 319 319 320 320 319 319 320 320 321 321 321 319 321 323 322 324 330 331
316 316 317 317 317 318 319 318 318 318 318 317 317 318 318 318 318 318 319 321 323 326
315 316 316 316 317 317 316 317 316 316 315 315 315 315 315 313 314 313 313 315 317 318
314 315 315 315 316 315 315 315 314 314 313 313 313 313 313 313 311 311 311 312 312 314
312 313 313 314 314 313 313 312 312 312 312 312 312 312 311 311 311 311 310 311 311 311
312 312 311 311 312 312 312 311 312 311 311 312 310 309 309 308 309 308 308 309 308 310
310 310 309 309 309 310 310 311 310 310 309 310 306 303 303 304 305 305 305 305 306 308
308 306 306 307 308 309 309 309 309 307 304 305 308 301 300 301 305 305 304 305 305 307
305 304 304 303 307 308 308 308 306 304 308 308 307 301 298 299 303 304 303 303 304 308
301 300 302 304 306 307 307 304 305 307 307 304 304 300 297 298 301 302 300 302 306 307
296 298 300 303 304 307 303 304 304 304 303 302 304 300 297 299 303 299 300 303 306 302
296 298 299 302 305 303 304 301 300 301 302 303 305 304 296 296 299 299 300 301 303 309

GFSNIL_sfc_thetae_111.txt.gz
Theta_e
327 325 325 327 325 325 324 325 332 330 330 330 328 330 332 328 328 332 331 335 337 334
325 325 324 326 327 322 327 323 326 326 325 325 325 327 329 324 327 328 328 328 330 330
322 321 323 323 323 324 324 324 323 323 323 323 324 324 327 323 325 326 323 323 326 327
320 320 321 321 321 321 323 322 321 321 321 321 320 323 322 321 321 320 322 322 321 321
319 319 320 320 321 321 320 321 320 320 319 319 317 320 319 317 317 317 317 317 317 316
317 318 319 319 320 320 319 319 319 317 317 316 316 315 316 315 316 317 317 316 316 314
316 317 317 318 318 318 318 317 316 316 315 315 314 314 314 314 314 313 313 314 314 312
315 316 316 316 315 315 315 315 315 314 314 314 313 311 312 311 310 310 309 310 310 310
313 314 314 314 312 312 312 312 313 313 312 312 310 305 303 306 308 308 307 306 308 309
311 311 312 311 310 310 310 313 312 311 311 312 312 303 301 302 306 307 307 307 307 306
307 307 307 307 308 309 311 312 309 309 310 310 308 302 299 300 305 305 307 307 308 305
304 303 303 302 304 307 309 307 307 309 309 307 308 302 298 300 305 304 304 306 307 305
301 300 299 298 302 305 306 306 307 307 307 306 309 301 298 300 303 301 300 302 302 302
299 298 297 299 301 304 305 305 305 305 306 307 307 307 299 296 299 299 299 299 300 304

GFSNIL_sfc_thetae_114.txt.gz
Theta_e
333 328 330 327 326 325 325 327 332 331 331 331 330 330 329 326 325 324 323 323 323 322
327 328 327 328 328 328 331 324 326 326 326 326 326 326 325 322 322 323 323 322 322 321
326 326 326 328 326 326 327 327 326 325 324 323 323 324 323 321 321 321 320 319 319 318
324 324 325 325 325 325 326 325 322 321 321 321 321 322 321 320 319 317 317 317 317 316
324 324 324 324 324 324 323 323 321 320 319 319 318 319 318 316 317 315 314 315 314 314
323 323 323 322 322 321 320 319 319 318 317 317 316 316 316 315 315 314 314 312 311 311
318 319 318 319 319 319 318 316 316 316 316 315 315 314 314 313 312 312 311 310 310 309
316 316 316 316 317 317 316 314 314 313 313 314 313 312 311 311 310 309 308 308 308 308
313 314 314 315 315 314 313 312 313 312 312 312 311 306 305 306 308 306 305 304 305 306
311 310 310 310 309 309 309 310 311 310 311 310 311 304 301 303 306 303 304 304 304 304
306 305 306 305 305 305 306 306 308 309 309 308 309 302 300 301 304 304 304 305 305 305
302 301 301 301 301 301 302 304 305 306 305 306 308 302 300 300 305 304 304 305 304 303
299 299 298 299 299 300 300 302 304 304 305 305 306 302 300 300 304 303 301 301 301 301
297 297 298 298 298 298 301 302 302 303 304 305 304 305 300 299 302 300 300 300 300 301

GFSNIL_sfc_thetae_117.txt.gz
Theta_e
319 320 318 317 316 316 315 318 319 318 318 318 319 318 318 317 317 317 316 315 315 316
316 316 316 316 316 318 317 318 317 318 318 318 318 318 318 316 315 316 316 316 315 314
314 315 314 314 313 314 315 316 316 316 316 316 317 317 316 315 315 314 314 315 312 311
311 312 313 312 313 314 314 315 315 315 315 314 314 314 314 313 314 313 312 312 312 312
311 311 311 312 312 313 312 313 314 314 314 314 314 312 311 311 312 311 310 311 309 308
309 309 309 310 311 311 311 311 311 311 311 312 311 311 311 310 310 309 308 307 306 306
306 307 308 309 310 310 311 309 308 309 310 311 311 311 309 308 305 305 306 306 305 304
306 307 307 307 308 309 308 308 308 308 308 308 309 310 305 306 304 305 306 306 305 305
306 305 304 304 304 303 303 304 305 306 309 309 310 304 304 305 306 305 303 302 303 304
302 302 301 301 300 300 299 300 301 303 307 308 307 303 302 303 305 303 302 303 304 302
298 298 298 297 297 297 299 300 298 300 304 305 305 302 300 301 303 303 303 302 302 302
296 296 297 297 297 298 298 296 297 300 302 303 304 301 299 300 301 302 302 302 303 304
293 293 295 296 296 297 294 296 300 301 302 303 303 301 298 299 302 302 303 303 302 301
293 294 295 295 296 296 296 298 299 300 302 303 303 302 298 298 302 302 300 300 301 302